When you browse on this site, cookies collect data to enhance your experience and personalize the content and advertising you see.
Visit our Privacy Policy to learn more. By continuing to use the site, you agree to this use of cookies and data.
  • In Romania
  • List of Countries
  • For 7 days
  • Water Temperature
  • Satellite Maps
  • Weather Map
  • Weather Widgets
  • user-avatar
    Login

    Hourly Weather Montana

    Today, 24 March, Sunday

    Time Temperature Precipitation Wind Pressure Humidity
    00:00 +11°C° 0 mm 1 mps 739 mmHg 67%
    01:00 +10°C° 0 mm 1 mps 739 mmHg 70%
    02:00 +10°C° 0 mm 1 mps 740 mmHg 74%
    03:00 +9°C° 0 mm 1 mps 740 mmHg 75%
    04:00 +9°C° 0 mm 1 mps 740 mmHg 75%
    05:00 +8°C° 0 mm 1 mps 740 mmHg 76%
    06:00 +8°C° 0 mm 1 mps 740 mmHg 74%
    07:00 +9°C° 0 mm 1 mps 740 mmHg 72%
    08:00 +9°C° 0 mm 1 mps 740 mmHg 69%
    09:00 +11°C° 0 mm 1 mps 739 mmHg 62%
    10:00 +12°C° 0 mm 1 mps 739 mmHg 54%
    11:00 +14°C° 0 mm 2 mps 739 mmHg 46%
    12:00 +15°C° 0 mm 2 mps 739 mmHg 43%
    13:00 +16°C° 0 mm 2 mps 738 mmHg 40%
    14:00 +17°C° 0 mm 2 mps 738 mmHg 37%
    15:00 +17°C° 0 mm 2 mps 737 mmHg 37%
    16:00 +18°C° 0 mm 1 mps 737 mmHg 37%
    17:00 +18°C° 0 mm 1 mps 736 mmHg 38%
    18:00 +15°C° 0 mm 1 mps 736 mmHg 42%
    19:00 +14°C° 0 mm 1 mps 736 mmHg 47%
    20:00 +12°C° 0 mm 1 mps 736 mmHg 52%
    21:00 +12°C° 0 mm 1 mps 736 mmHg 53%
    22:00 +12°C° 0 mm 1 mps 736 mmHg 54%
    23:00 +11°C° 0 mm 1 mps 736 mmHg 55%

    Tomorrow, 25 March, Monday

    Time Temperature Precipitation Wind Pressure Humidity
    00:00 +10°C° 0 mm 2 mps 736 mmHg 56%
    01:00 +10°C° 0 mm 2 mps 736 mmHg 58%
    02:00 +10°C° 0 mm 2 mps 735 mmHg 59%
    03:00 +9°C° 0 mm 2 mps 735 mmHg 60%
    04:00 +9°C° 0 mm 2 mps 735 mmHg 62%
    05:00 +9°C° 0 mm 2 mps 734 mmHg 64%
    06:00 +9°C° 0 mm 2 mps 734 mmHg 62%
    07:00 +10°C° 0 mm 2 mps 734 mmHg 61%
    08:00 +12°C° 0 mm 2 mps 734 mmHg 60%
    09:00 +14°C° 0 mm 1 mps 733 mmHg 52%
    10:00 +16°C° 0 mm 1 mps 733 mmHg 43%
    11:00 +19°C° 0 mm 1 mps 733 mmHg 34%
    12:00 +20°C° 0 mm 1 mps 732 mmHg 31%
    13:00 +21°C° 0 mm 1 mps 731 mmHg 29%
    14:00 +21°C° 0 mm 2 mps 731 mmHg 26%
    15:00 +21°C° 0 mm 1 mps 730 mmHg 27%
    16:00 +21°C° 0 mm 1 mps 730 mmHg 28%
    17:00 +21°C° 0 mm 1 mps 729 mmHg 29%
    18:00 +19°C° 0 mm 1 mps 729 mmHg 34%
    19:00 +16°C° 0 mm 1 mps 729 mmHg 38%
    20:00 +15°C° 0 mm 1 mps 729 mmHg 42%
    21:00 +14°C° 0 mm 1 mps 729 mmHg 44%
    22:00 +14°C° 0 mm 1 mps 729 mmHg 45%
    23:00 +13°C° 0 mm 1 mps 729 mmHg 46%

    Day after tomorrow, 26 March, Tuesday

    Time Temperature Precipitation Wind Pressure Humidity
    00:00 +13°C° 0 mm 1 mps 730 mmHg 48%
    01:00 +12°C° 0 mm 1 mps 730 mmHg 50%
    02:00 +12°C° 0 mm 1 mps 730 mmHg 51%
    03:00 +12°C° 0 mm 2 mps 730 mmHg 53%
    04:00 +10°C° 0 mm 2 mps 731 mmHg 56%
    05:00 +10°C° 0 mm 2 mps 731 mmHg 58%
    06:00 +10°C° 0 mm 3 mps 732 mmHg 62%
    07:00 +10°C° 0 mm 3 mps 732 mmHg 65%
    08:00 +10°C° 0 mm 4 mps 733 mmHg 69%
    09:00 +10°C° 0.2 mm 4 mps 733 mmHg 67%
    10:00 +10°C° 0.2 mm 4 mps 734 mmHg 65%
    11:00 +10°C° 0.2 mm 4 mps 734 mmHg 63%
    12:00 +10°C° 0.5 mm 4 mps 734 mmHg 62%
    13:00 +11°C° 0.5 mm 4 mps 734 mmHg 61%
    14:00 +11°C° 0.5 mm 4 mps 735 mmHg 60%
    15:00 +11°C° 0.1 mm 4 mps 735 mmHg 56%
    16:00 +11°C° 0.1 mm 4 mps 735 mmHg 52%
    17:00 +11°C° 0.1 mm 4 mps 735 mmHg 49%
    18:00 +10°C° 0 mm 4 mps 736 mmHg 50%
    19:00 +9°C° 0 mm 3 mps 737 mmHg 51%
    20:00 +8°C° 0 mm 2 mps 737 mmHg 52%
    21:00 +7°C° 0 mm 2 mps 738 mmHg 54%
    22:00 +7°C° 0 mm 2 mps 738 mmHg 56%
    23:00 +8°C° 0 mm 1 mps 738 mmHg 58%

    27 March, Wednesday

    Time Temperature Precipitation Wind Pressure Humidity
    00:00 +7°C° 0 mm 1 mps 739 mmHg 63%
    01:00 +7°C° 0 mm 1 mps 739 mmHg 68%
    02:00 +7°C° 0 mm 1 mps 739 mmHg 73%
    03:00 +7°C° 0.1 mm 1 mps 739 mmHg 77%
    04:00 +7°C° 0.1 mm 1 mps 739 mmHg 81%
    05:00 +7°C° 0.1 mm 1 mps 739 mmHg 85%
    06:00 +7°C° 0.2 mm 1 mps 740 mmHg 85%
    07:00 +6°C° 0.2 mm 2 mps 740 mmHg 86%
    08:00 +6°C° 0.2 mm 2 mps 740 mmHg 87%
    09:00 +7°C° 0.2 mm 2 mps 740 mmHg 83%
    10:00 +7°C° 0.2 mm 2 mps 740 mmHg 78%
    11:00 +8°C° 0.2 mm 2 mps 741 mmHg 73%
    12:00 +9°C° 0.2 mm 2 mps 740 mmHg 70%
    13:00 +9°C° 0.2 mm 2 mps 740 mmHg 67%
    14:00 +10°C° 0.2 mm 2 mps 740 mmHg 64%
    15:00 +10°C° 0.2 mm 2 mps 740 mmHg 64%
    16:00 +10°C° 0.2 mm 2 mps 740 mmHg 64%
    17:00 +10°C° 0.2 mm 2 mps 740 mmHg 65%
    18:00 +9°C° 0.1 mm 2 mps 740 mmHg 67%
    19:00 +10°C° 0.1 mm 1 mps 740 mmHg 69%
    20:00 +9°C° 0.1 mm 1 mps 741 mmHg 72%
    21:00 +9°C° 0.1 mm 1 mps 741 mmHg 73%
    22:00 +8°C° 0.1 mm 1 mps 741 mmHg 73%
    23:00 +8°C° 0.1 mm 1 mps 741 mmHg 74%

    28 March, Thursday

    Time Temperature Precipitation Wind Pressure Humidity
    00:00 +8°C° 0 mm 1 mps 741 mmHg 75%
    01:00 +7°C° 0 mm 1 mps 741 mmHg 75%
    02:00 +7°C° 0 mm 1 mps 742 mmHg 76%
    03:00 +7°C° 0 mm 1 mps 742 mmHg 76%
    04:00 +6°C° 0 mm 1 mps 742 mmHg 77%
    05:00 +6°C° 0 mm 1 mps 742 mmHg 78%
    06:00 +6°C° 0 mm 1 mps 742 mmHg 77%
    07:00 +6°C° 0 mm 1 mps 742 mmHg 75%
    08:00 +6°C° 0 mm 1 mps 743 mmHg 74%
    09:00 +7°C° 0 mm 2 mps 743 mmHg 69%
    10:00 +8°C° 0 mm 2 mps 743 mmHg 64%
    11:00 +9°C° 0 mm 3 mps 743 mmHg 59%
    12:00 +10°C° 0 mm 3 mps 743 mmHg 55%
    13:00 +10°C° 0 mm 4 mps 742 mmHg 52%
    14:00 +11°C° 0 mm 4 mps 742 mmHg 49%
    15:00 +11°C° 0 mm 4 mps 742 mmHg 50%
    16:00 +10°C° 0 mm 4 mps 742 mmHg 51%
    17:00 +10°C° 0 mm 4 mps 741 mmHg 52%
    18:00 +9°C° 0 mm 3 mps 742 mmHg 56%
    19:00 +7°C° 0 mm 2 mps 742 mmHg 61%
    20:00 +6°C° 0 mm 2 mps 742 mmHg 65%
    21:00 +6°C° 0 mm 1 mps 743 mmHg 65%
    22:00 +6°C° 0 mm 1 mps 743 mmHg 64%
    23:00 +5°C° 0 mm 1 mps 743 mmHg 63%

    29 March, Friday

    Time Temperature Precipitation Wind Pressure Humidity
    00:00 +5°C° 0 mm 1 mps 743 mmHg 61%
    01:00 +5°C° 0 mm 1 mps 743 mmHg 58%
    02:00 +4°C° 0 mm 1 mps 743 mmHg 55%
    03:00 +4°C° 0 mm 1 mps 743 mmHg 53%
    04:00 +4°C° 0 mm 1 mps 743 mmHg 52%
    05:00 +4°C° 0 mm 1 mps 744 mmHg 50%
    06:00 +5°C° 0 mm 1 mps 744 mmHg 49%
    07:00 +5°C° 0 mm 1 mps 744 mmHg 48%
    08:00 +6°C° 0 mm 1 mps 744 mmHg 47%
    09:00 +8°C° 0 mm 1 mps 744 mmHg 44%
    10:00 +9°C° 0 mm 1 mps 744 mmHg 41%
    11:00 +10°C° 0 mm 2 mps 743 mmHg 37%
    12:00 +10°C° 0 mm 2 mps 743 mmHg 37%
    13:00 +12°C° 0 mm 2 mps 743 mmHg 36%
    14:00 +13°C° 0 mm 2 mps 742 mmHg 36%
    15:00 +13°C° 0 mm 2 mps 742 mmHg 37%
    16:00 +12°C° 0 mm 2 mps 741 mmHg 37%
    17:00 +12°C° 0 mm 1 mps 741 mmHg 38%
    18:00 +11°C° 0 mm 1 mps 741 mmHg 43%
    19:00 +9°C° 0 mm 1 mps 741 mmHg 47%
    20:00 +8°C° 0 mm 1 mps 741 mmHg 52%
    21:00 +8°C° 0 mm 1 mps 741 mmHg 51%
    22:00 +7°C° 0 mm 1 mps 741 mmHg 51%
    23:00 +7°C° 0 mm 1 mps 741 mmHg 50%
    Show more